Location: Newark
(23.5328°S, 46.7919°W)
Time: 03:06:18
(UTC+00:00)

Envisat - Pass Details

Date: 15 March 2021
Orbit: 764 x 766 km, 98.1° (Epoch: 18 April)

Event Time Altitude Azimuth Distance (km) Brightness Sun altitude
Rises 21:50:08 0° 196° (SSW) 3,254 6.6 -7.1°
Reaches altitude 10° 21:53:43 10° 223° (SW) 2,319 6.3 -7.9°
Maximum altitude 21:56:00 13° 249° (WSW) 2,106 6.7 -8.5°
Drops below altitude 10° 21:58:16 10° 276° (W) 2,309 7.0 -9.0°
Sets 22:01:50 0° 303° (WNW) 3,225 7.1 -9.8°
